This demonstration page uses our WeatherBlox Daily Observations layout. Learn more.

Left ArrowRight Arrow

Hourly Observations for August 26, 2015

Temp ( °F °C ) Dew Point ( °F °C ) Humidity (%) Winds ( mph kmh ) Pressure ( in mb ) Visibility ( mi km ) Precip ( " mm )
12:53 am 00:53 Mostly Cloudy 57 13.9 56 13.3 96 96 N N/A 30.07 1018 10 16 N/A
1:53 am 01:53 Cloudy 61 16.1 57 13.9 87 87 N N/A 30.07 1018 10 16 N/A
2:53 am 02:53 Cloudy 62 16.7 57 13.9 84 84 NW 3 6 30.07 1018 10 16 N/A
3:53 am 03:53 Cloudy 60 15.6 57 13.9 90 90 N N/A 30.07 1018 10 16 N/A
4:53 am 04:53 Cloudy 60 15.6 57 13.9 90 90 N N/A 30.07 1018 10 16 N/A
5:53 am 05:53 Cloudy 59 15 57 13.9 93 93 N N/A 30.07 1018 10 16 N/A
6:53 am 06:53 Cloudy 61 16.1 56 13.3 84 84 N N/A 30.09 1019 10 16 N/A
7:53 am 07:53 Cloudy 61 16.1 57 13.9 87 87 N N/A 30.11 1020 10 16 N/A
8:53 am 08:53 Cloudy 64 17.8 56 13.3 75 75 N 3 6 30.13 1020 10 16 N/A
9:53 am 09:53 Cloudy 66 18.9 55 12.8 68 68 NNE 5 7 30.14 1021 10 16 N/A
10:53 am 10:53 Cloudy 67 19.4 54 12.2 63 63 ENE 5 7 30.14 1021 10 16 N/A
11:53 am 11:53 Cloudy 69 20.6 54 12.2 59 59 N 5 7 30.15 1021 10 16 N/A
12:53 pm 12:53 Cloudy 69 20.6 55 12.8 61 61 S 3 6 30.15 1021 10 16 N/A
1:53 pm 13:53 Cloudy 72 22.2 55 12.8 55 55 N N/A 30.14 1021 10 16 N/A
2:53 pm 14:53 Mostly Cloudy 72 22.2 55 12.8 55 55 WSW 3 6 30.13 1020 10 16 N/A
3:53 pm 15:53 Cloudy 73 22.8 56 13.3 55 55 NE 5 7 30.12 1020 10 16 N/A
4:53 pm 16:53 Cloudy 71 21.7 56 13.3 59 59 NNE 7 11 30.12 1020 10 16 N/A
5:53 pm 17:53 Partly Cloudy 72 22.2 56 13.3 57 57 N N/A 30.12 1020 10 16 N/A
6:53 pm 18:53 Sunny 73 22.8 56 13.3 55 55 NNW 5 7 30.11 1020 10 16 N/A
7:53 pm 19:53 Sunny 67 19.4 58 14.4 73 73 NNE 5 7 30.11 1020 10 16 N/A
8:53 pm 20:53 Clear 60 15.6 58 14.4 93 93 N N/A 30.11 1020 10 16 N/A
9:53 pm 21:53 Clear 59 15 57 13.9 93 93 N N/A 30.13 1020 10 16 N/A
10:53 pm 22:53 Cloudy 58 14.4 57 13.9 97 97 N N/A 30.14 1021 10 16 N/A
11:53 pm 23:53 Partly Cloudy 57 13.9 55 12.8 93 93 N N/A 30.15 1021 10 16 N/A

Powered by AerisWeather